Weather History for KOSC - December, 2012

Change the Weather History Date:

Tuesday, December 4, 2012

  Actual Average Record
Temperature  
Mean Temperature 45 °F -  
Max Temperature 58 °F 37 °F 58 °F (2012)
Min Temperature 32 °F 23 °F 3 °F (2002)
Degree Days  
Heating Degree Days 20    
Moisture  
Dew Point 39 °F    
Average Humidity 73    
Maximum Humidity 96    
Minimum Humidity 56    
Precipitation  
Precipitation 0.00 in - - ()
Sea Level Pressure  
Sea Level Pressure 29.88 in    
Wind  
Wind Speed 12 mph (West)    
Max Wind Speed 18 mph    
Max Gust Speed 24 mph    
Visibility 10 miles    
Events Rain    
Averages and records for this station are not official NWS values.
T = Trace of Precipitation, MM = Missing Value Source: NWS Daily Summary

Daily Weather History Graph

Daily Weather History Graph

Search for Another Location

Airport or City:

Trip Planner

Search our weather history database for the weather conditions in past years. The results will help you decide how hot, cold, wet, or windy it might be!

Date:

Astronomy

Dec. 04, 2012 Rise Set
Actual Time 7:53 AM EST 4:54 PM EST
Civil Twilight 7:20 AM EST 5:27 PM EST
Nautical Twilight 6:44 AM EST 6:03 PM EST
Astronomical Twilight 6:08 AM EST 6:38 PM EST
Moon 10:49 PM EST (12/4) 11:39 AM EST (12/4)
Length of Visible Light 10h 06m
Length of Day
9h 00m
Waning Gibbous, 69% of the Moon is Illuminated
Dec 4
Waning Gibbous
Dec 6
Last Quarter
Dec 13
New
Dec 20
First Quarter
Dec 28
Full

Hourly Weather History & Observations

Time (EST) Temp. Windchill Dew Point Humidity Pressure Visibility Wind Dir Wind Speed Gust Speed Precip Events Conditions
12:14 AM 56.3 °F - 53.8 °F 91% 29.75 in 7.0 mi SSW 15.0 mph 21.9 mph N/A   Overcast
12:34 AM 56.5 °F - 53.8 °F 91% 29.75 in 7.0 mi SSW 12.7 mph 20.7 mph N/A   Overcast
12:54 AM 56.7 °F - 53.8 °F 90% 29.75 in 10.0 mi SSW 15.0 mph 20.7 mph N/A   Overcast
1:14 AM 57.2 °F - 53.6 °F 88% 29.74 in 10.0 mi SSW 13.8 mph 21.9 mph N/A   Overcast
1:34 AM 57.2 °F - 53.6 °F 88% 29.74 in 7.0 mi SSW 13.8 mph 21.9 mph N/A Rain Light Rain
1:54 AM 57.0 °F - 53.2 °F 87% 29.73 in 10.0 mi SSW 12.7 mph 20.7 mph N/A   Overcast
2:14 AM 57.2 °F - 53.1 °F 86% 29.73 in 10.0 mi SSW 15.0 mph 20.7 mph N/A   Overcast
2:34 AM 56.7 °F - 53.6 °F 89% 29.75 in 5.0 mi SSW 12.7 mph 19.6 mph N/A Rain Rain
2:54 AM 56.3 °F - 54.5 °F 94% 29.75 in 5.0 mi SSW 12.7 mph 18.4 mph N/A Rain Heavy Rain
3:14 AM 56.7 °F - 55.4 °F 96% 29.75 in 7.0 mi SW 12.7 mph 17.3 mph N/A Rain Light Rain
3:34 AM 57.4 °F - 56.3 °F 96% 29.75 in 7.0 mi WSW 10.4 mph - N/A Rain Rain
3:54 AM 58.3 °F - 56.3 °F 93% 29.76 in 10.0 mi WSW 10.4 mph - N/A   Overcast
4:14 AM 57.6 °F - 55.6 °F 93% 29.77 in 10.0 mi WSW 16.1 mph 20.7 mph N/A   Mostly Cloudy
4:33 AM 57.2 °F - 54.3 °F 90% 29.78 in 10.0 mi WSW 18.4 mph 21.9 mph N/A   Mostly Cloudy
4:54 AM 56.7 °F - 53.2 °F 88% 29.78 in 10.0 mi West 11.5 mph 16.1 mph N/A   Mostly Cloudy
5:14 AM 54.9 °F - 48.9 °F 80% 29.80 in 10.0 mi West 12.7 mph 23.0 mph N/A   Scattered Clouds
5:34 AM 52.9 °F - 48.4 °F 85% 29.81 in 10.0 mi West 12.7 mph - N/A   Clear
5:54 AM 50.9 °F - 44.8 °F 80% 29.82 in 10.0 mi West 10.4 mph - N/A   Clear
6:14 AM 49.1 °F - 45.1 °F 86% 29.82 in 10.0 mi WNW 6.9 mph - N/A   Clear
6:34 AM 49.5 °F - 45.0 °F 84% 29.83 in 10.0 mi West 9.2 mph - N/A   Clear
6:54 AM 48.2 °F - 44.6 °F 87% 29.84 in 10.0 mi West 6.9 mph - N/A   Clear
7:14 AM 47.7 °F - 42.8 °F 83% 29.85 in 10.0 mi West 9.2 mph - N/A   Clear
7:34 AM 45.5 °F 40.3 °F 43.0 °F 91% 29.86 in 10.0 mi West 10.4 mph 17.3 mph N/A   Clear
7:54 AM 46.9 °F - 42.8 °F 86% 29.87 in 10.0 mi WSW 8.1 mph - N/A   Clear
8:14 AM 46.8 °F - 41.5 °F 82% 29.87 in 10.0 mi West 12.7 mph - N/A   Clear
8:34 AM 46.6 °F - 40.3 °F 79% 29.88 in 10.0 mi West 11.5 mph - N/A   Clear
8:54 AM 46.4 °F 41.1 °F 40.3 °F 79% 29.89 in 10.0 mi West 11.5 mph - N/A   Clear
9:14 AM 46.4 °F 40.4 °F 39.6 °F 77% 29.89 in 10.0 mi West 13.8 mph - N/A   Clear
9:34 AM 46.4 °F 41.9 °F 39.4 °F 77% 29.90 in 10.0 mi West 9.2 mph - N/A   Clear
9:54 AM 46.6 °F - 39.0 °F 75% 29.90 in 10.0 mi West 10.4 mph - N/A   Clear
10:14 AM 46.6 °F - 37.8 °F 71% 29.89 in 10.0 mi West 11.5 mph - N/A   Clear
10:34 AM 46.4 °F 41.5 °F 37.2 °F 70% 29.89 in 10.0 mi West 10.4 mph - N/A   Clear
10:54 AM 46.4 °F 40.4 °F 36.9 °F 69% 29.89 in 10.0 mi West 13.8 mph - N/A   Clear
11:14 AM 46.8 °F - 36.3 °F 67% 29.89 in 10.0 mi West 13.8 mph - N/A   Clear
11:34 AM 46.8 °F - 36.3 °F 67% 29.88 in 10.0 mi West 13.8 mph 18.4 mph N/A   Clear
11:54 AM 46.9 °F - 36.3 °F 67% 29.87 in 10.0 mi West 13.8 mph 17.3 mph N/A   Clear
12:14 PM 47.3 °F - 35.8 °F 64% 29.87 in 10.0 mi West 15.0 mph 20.7 mph N/A   Clear
12:34 PM 47.7 °F - 35.6 °F 63% 29.87 in 10.0 mi West 13.8 mph 20.7 mph N/A   Clear
12:54 PM 48.2 °F - 35.6 °F 62% 29.87 in 10.0 mi West 11.5 mph 17.3 mph N/A   Clear
1:14 PM 48.2 °F - 35.1 °F 60% 29.87 in 10.0 mi WSW 11.5 mph - N/A   Clear
1:34 PM 48.6 °F - 34.3 °F 58% 29.87 in 10.0 mi WSW 13.8 mph - N/A   Clear
1:54 PM 48.6 °F - 34.3 °F 58% 29.87 in 10.0 mi WSW 10.4 mph - N/A   Clear
2:14 PM 48.6 °F - 34.5 °F 58% 29.87 in 10.0 mi WSW 13.8 mph - N/A   Clear
2:34 PM 48.2 °F - 34.2 °F 58% 29.86 in 10.0 mi SW 10.4 mph 18.4 mph N/A   Clear
2:54 PM 49.5 °F - 34.7 °F 57% 29.86 in 10.0 mi WSW 13.8 mph 20.7 mph N/A   Clear
3:14 PM 49.1 °F - 33.8 °F 56% 29.86 in 10.0 mi WSW 12.7 mph - N/A   Clear
3:34 PM 49.1 °F - 33.8 °F 56% 29.86 in 10.0 mi SW 12.7 mph - N/A   Clear
3:54 PM 48.4 °F - 33.6 °F 57% 29.88 in 10.0 mi WSW 10.4 mph - N/A   Clear
4:14 PM 47.7 °F - 32.7 °F 56% 29.88 in 10.0 mi WSW 12.7 mph - N/A   Clear
4:34 PM 46.2 °F 41.2 °F 32.9 °F 60% 29.89 in 10.0 mi WSW 10.4 mph - N/A   Clear
4:53 PM 43.7 °F 39.7 °F 32.5 °F 65% 29.89 in 10.0 mi WSW 6.9 mph - N/A   Clear
5:14 PM 41.4 °F 36.2 °F 32.2 °F 70% 29.90 in 10.0 mi WSW 8.1 mph - N/A   Clear
5:34 PM 43.0 °F 37.2 °F 31.5 °F 64% 29.90 in 10.0 mi West 10.4 mph - N/A   Clear
5:54 PM 42.8 °F 36.2 °F 30.9 °F 63% 29.91 in 10.0 mi West 12.7 mph 17.3 mph N/A   Clear
6:14 PM 42.6 °F 38.4 °F 30.0 °F 61% 29.93 in 10.0 mi West 6.9 mph - N/A   Clear
6:34 PM 43.0 °F 37.7 °F 29.7 °F 59% 29.94 in 10.0 mi West 9.2 mph - N/A   Clear
6:53 PM 42.1 °F 36.1 °F 29.8 °F 62% 29.95 in 10.0 mi WNW 10.4 mph - N/A   Clear
7:14 PM 41.7 °F 36.1 °F 29.8 °F 63% 29.95 in 10.0 mi WNW 9.2 mph - N/A   Scattered Clouds
7:34 PM 41.9 °F 35.4 °F 30.0 °F 63% 29.96 in 10.0 mi WNW 11.5 mph 16.1 mph N/A   Mostly Cloudy
7:53 PM 41.0 °F 33.9 °F 29.3 °F 63% 29.96 in 10.0 mi WNW 12.7 mph 19.6 mph N/A   Scattered Clouds
8:14 PM 40.6 °F 35.4 °F 28.4 °F 62% 29.97 in 10.0 mi West 8.1 mph - N/A   Mostly Cloudy
8:34 PM 41.2 °F 35.5 °F 28.4 °F 60% 29.97 in 10.0 mi West 9.2 mph - N/A   Overcast
8:54 PM 41.2 °F 35.0 °F 28.9 °F 62% 29.98 in 10.0 mi WNW 10.4 mph - N/A   Overcast
9:14 PM 41.2 °F 35.0 °F 28.2 °F 60% 29.99 in 10.0 mi WNW 10.4 mph 16.1 mph N/A   Overcast
9:34 PM 40.5 °F 32.5 °F 27.7 °F 60% 30.00 in 10.0 mi WNW 15.0 mph 18.4 mph N/A   Overcast
9:54 PM 38.3 °F 29.7 °F 29.1 °F 70% 30.03 in 10.0 mi NW 15.0 mph 24.2 mph N/A   Overcast
10:14 PM 36.3 °F 26.4 °F 26.8 °F 68% 30.04 in 10.0 mi NW 17.3 mph 24.2 mph N/A   Overcast
10:34 PM 34.3 °F 25.0 °F 24.6 °F 68% 30.05 in 10.0 mi NNW 13.8 mph 20.7 mph N/A   Overcast
10:54 PM 33.6 °F 24.1 °F 23.5 °F 67% 30.06 in 10.0 mi NW 13.8 mph - N/A   Overcast
11:14 PM 32.9 °F 23.7 °F 22.1 °F 65% 30.08 in 10.0 mi NNW 12.7 mph 24.2 mph N/A   Overcast
11:34 PM 32.0 °F 23.0 °F 21.2 °F 64% 30.09 in 10.0 mi NW 11.5 mph - N/A   Overcast
11:54 PM 32.0 °F 24.2 °F 20.8 °F 63% 30.10 in 10.0 mi NNW 9.2 mph - N/A   Overcast